QPF
0.02 0.01 0.01 0.02 0.02 0.02 0.02 0.03 0.03 0.02 0.02 0.01 0.01 0.02 0.03 0.02 0.01 0.01 0.02 0.03 0.04 0.04 0.04 0.02 0.02 0.04 0.02 0.01 0.01 0.02 0.02 0.02 0.02 0.01 0.01 0.01 0.01 0.01 0.01 0.01 0.01 0.01 0.02
0.02 0.02 0.02 0.03 0.02 0.02 0.02 0.03 0.03 0.03 0.02 0.02 0.02 0.02 0.03 0.02 0.01 0.01 0.02 0.03 0.03 0.03 0.03 0.03 0.04 0.04 0.04 0.02 0.02 0.03 0.02 0.01 0.01 0.01 0.01 0.01 0.01 0.01 0.01 0.02 0.03 0.02 0.01
0.03 0.02 0.03 0.04 0.03 0.03 0.03 0.04 0.04 0.04 0.04 0.03 0.03 0.03 0.04 0.03 0.02 0.02 0.03 0.04 0.05 0.04 0.03 0.03 0.03 0.03 0.04 0.04 0.03 0.03 0.03 0.02 0.02 0.01 0.01 0.00 0.01 0.00 0.00 0.01 0.01 0.01 0.01
0.04 0.05 0.05 0.05 0.04 0.03 0.04 0.05 0.05 0.05 0.06 0.06 0.07 0.05 0.06 0.07 0.04 0.02 0.02 0.03 0.05 0.06 0.06 0.04 0.04 0.03 0.03 0.04 0.05 0.05 0.04 0.03 0.02 0.01 0.01 0.01 0.01 0.01 0.01 0.01 0.01 0.01 0.01
0.06 0.05 0.05 0.06 0.04 0.05 0.05 0.04 0.05 0.07 0.08 0.09 0.07 0.06 0.06 0.08 0.07 0.03 0.03 0.02 0.04 0.06 0.07 0.06 0.04 0.03 0.04 0.04 0.05 0.05 0.04 0.03 0.02 0.02 0.02 0.02 0.02 0.01 0.01 0.01 0.01 0.01 0.00
0.10 0.08 0.06 0.07 0.06 0.06 0.07 0.07 0.10 0.10 0.10 0.11 0.05 0.04 0.05 0.04 0.04 0.03 0.04 0.04 0.03 0.02 0.03 0.04 0.08 0.05 0.03 0.04 0.05 0.05 0.06 0.05 0.04 0.03 0.03 0.03 0.02 0.02 0.02 0.01 0.01 0.01 0.01
0.11 0.12 0.09 0.10 0.09 0.09 0.10 0.08 0.09 0.10 0.11 0.10 0.09 0.06 0.04 0.03 0.03 0.03 0.03 0.03 0.04 0.05 0.05 0.07 0.09 0.08 0.06 0.05 0.05 0.05 0.07 0.08 0.09 0.07 0.05 0.04 0.04 0.03 0.02 0.02 0.02 0.02 0.01
0.09 0.08 0.10 0.10 0.11 0.11 0.10 0.09 0.09 0.08 0.09 0.09 0.11 0.10 0.08 0.07 0.03 0.01 0.02 0.03 0.03 0.04 0.05 0.05 0.05 0.08 0.06 0.05 0.04 0.04 0.06 0.08 0.11 0.11 0.08 0.06 0.06 0.05 0.04 0.04 0.03 0.02 0.02
0.07 0.08 0.08 0.10 0.11 0.08 0.09 0.11 0.10 0.08 0.09 0.08 0.08 0.10 0.11 0.09 0.06 0.03 0.02 0.02 0.02 0.02 0.02 0.02 0.02 0.03 0.03 0.05 0.06 0.06 0.04 0.06 0.09 0.11 0.12 0.11 0.09 0.07 0.06 0.07 0.06 0.05 0.05
0.07 0.08 0.08 0.08 0.08 0.07 0.09 0.08 0.08 0.08 0.09 0.09 0.08 0.07 0.09 0.09 0.09 0.05 0.03 0.02 0.02 0.02 0.01 0.01 0.01 0.02 0.03 0.04 0.05 0.04 0.04 0.06 0.07 0.09 0.10 0.11 0.11 0.09 0.07 0.07 0.07 0.07 0.07
0.10 0.09 0.09 0.09 0.09 0.08 0.08 0.07 0.09 0.09 0.07 0.08 0.09 0.08 0.08 0.08 0.07 0.06 0.05 0.05 0.03 0.02 0.02 0.02 0.02 0.02 0.03 0.04 0.04 0.04 0.03 0.04 0.05 0.08 0.10 0.11 0.12 0.11 0.10 0.09 0.08 0.08 0.09
0.08 0.08 0.08 0.08 0.07 0.07 0.08 0.08 0.08 0.08 0.08 0.09 0.10 0.08 0.09 0.09 0.08 0.08 0.07 0.06 0.05 0.03 0.03 0.03 0.02 0.02 0.03 0.03 0.03 0.02 0.03 0.04 0.06 0.08 0.08 0.09 0.09 0.09 0.09 0.09 0.10 0.10 0.10
0.05 0.07 0.06 0.08 0.06 0.06 0.07 0.07 0.08 0.09 0.10 0.10 0.09 0.09 0.08 0.08 0.09 0.09 0.09 0.06 0.03 0.02 0.03 0.03 0.01 0.01 0.02 0.03 0.05 0.05 0.05 0.05 0.07 0.08 0.09 0.09 0.07 0.07 0.07 0.08 0.10 0.10 0.12
0.04 0.04 0.05 0.06 0.05 0.05 0.05 0.06 0.07 0.07 0.07 0.08 0.07 0.08 0.09 0.09 0.09 0.08 0.08 0.08 0.05 0.04 0.04 0.03 0.02 0.01 0.02 0.03 0.06 0.07 0.07 0.08 0.09 0.07 0.07 0.07 0.07 0.07 0.07 0.08 0.07 0.08 0.08
0.03 0.03 0.04 0.05 0.04 0.05 0.06 0.06 0.06 0.06 0.07 0.07 0.07 0.08 0.08 0.09 0.09 0.09 0.09 0.09 0.10 0.08 0.07 0.05 0.04 0.03 0.03 0.03 0.05 0.06 0.07 0.09 0.09 0.08 0.07 0.07 0.07 0.08 0.07 0.07 0.07 0.07 0.07
0.03 0.04 0.05 0.05 0.04 0.05 0.04 0.04 0.05 0.06 0.05 0.06 0.07 0.08 0.08 0.08 0.08 0.08 0.08 0.08 0.10 0.09 0.08 0.05 0.05 0.04 0.03 0.04 0.06 0.05 0.06 0.08 0.08 0.08 0.08 0.08 0.09 0.08 0.06 0.05 0.05 0.06 0.07
0.03 0.04 0.04 0.04 0.03 0.04 0.04 0.04 0.05 0.05 0.05 0.05 0.05 0.05 0.06 0.07 0.08 0.07 0.07 0.07 0.07 0.07 0.06 0.05 0.05 0.04 0.04 0.05 0.06 0.07 0.08 0.07 0.08 0.09 0.08 0.08 0.07 0.06 0.05 0.05 0.05 0.06 0.06
0.02 0.03 0.04 0.05 0.04 0.04 0.05 0.05 0.05 0.05 0.05 0.04 0.04 0.04 0.05 0.06 0.06 0.07 0.07 0.06 0.06 0.08 0.08 0.08 0.05 0.04 0.05 0.06 0.07 0.08 0.07 0.07 0.08 0.09 0.07 0.07 0.06 0.06 0.07 0.07 0.07 0.07 0.07
0.03 0.03 0.05 0.05 0.05 0.04 0.04 0.04 0.05 0.05 0.04 0.04 0.04 0.05 0.06 0.07 0.07 0.07 0.06 0.06 0.06 0.07 0.08 0.08 0.06 0.06 0.05 0.06 0.08 0.07 0.07 0.07 0.06 0.07 0.08 0.07 0.07 0.07 0.08 0.08 0.08 0.08 0.07
0.06 0.06 0.06 0.07 0.07 0.05 0.05 0.05 0.05 0.05 0.05 0.05 0.05 0.05 0.06 0.05 0.06 0.06 0.05 0.06 0.07 0.08 0.08 0.07 0.05 0.04 0.05 0.05 0.06 0.05 0.05 0.06 0.06 0.07 0.08 0.09 0.10 0.10 0.10 0.09 0.10 0.09 0.08
0.09 0.10 0.08 0.08 0.07 0.06 0.05 0.05 0.07 0.07 0.09 0.08 0.07 0.06 0.05 0.05 0.05 0.05 0.04 0.05 0.06 0.06 0.06 0.05 0.05 0.05 0.05 0.05 0.04 0.04 0.03 0.04 0.04 0.05 0.05 0.07 0.09 0.11 0.12 0.12 0.12 0.12 0.12
0.05 0.07 0.08 0.09 0.06 0.04 0.04 0.05 0.07 0.09 0.09 0.08 0.07 0.06 0.05 0.05 0.05 0.05 0.05 0.04 0.05 0.06 0.05 0.04 0.03 0.03 0.03 0.03 0.03 0.03 0.04 0.04 0.05 0.05 0.07 0.09 0.10 0.11 0.11 0.11 0.13 0.13 0.12
0.05 0.06 0.05 0.05 0.04 0.04 0.04 0.05 0.05 0.07 0.09 0.07 0.07 0.08 0.06 0.04 0.04 0.03 0.04 0.03 0.03 0.02 0.02 0.02 0.02 0.02 0.02 0.03 0.04 0.04 0.05 0.05 0.06 0.08 0.08 0.08 0.08 0.08 0.07 0.08 0.10 0.10 0.10
0.05 0.05 0.05 0.05 0.05 0.04 0.04 0.04 0.04 0.05 0.05 0.05 0.04 0.03 0.03 0.03 0.02 0.02 0.03 0.03 0.02 0.02 0.01 0.01 0.01 0.02 0.02 0.02 0.03 0.03 0.05 0.05 0.04 0.05 0.04 0.04 0.04 0.04 0.04 0.05 0.07 0.08 0.09
0.06 0.05 0.04 0.05 0.06 0.06 0.07 0.06 0.06 0.06 0.05 0.04 0.03 0.02 0.02 0.02 0.02 0.02 0.03 0.03 0.03 0.02 0.01 0.01 0.01 0.01 0.02 0.02 0.03 0.03 0.03 0.03 0.03 0.03 0.02 0.03 0.02 0.03 0.03 0.04 0.05 0.07 0.07
0.07 0.07 0.04 0.04 0.04 0.07 0.11 0.13 0.10 0.07 0.06 0.04 0.03 0.04 0.03 0.03 0.04 0.04 0.04 0.04 0.03 0.03 0.02 0.02 0.02 0.02 0.02 0.02 0.03 0.03 0.03 0.04 0.03 0.03 0.02 0.02 0.02 0.03 0.04 0.04 0.05 0.06 0.07
MSLP
1018.38 1018.68 1018.89 1019.03 1019.12 1019.19 1019.26 1019.34 1019.44 1019.52 1019.57 1019.58 1019.53 1019.44 1019.36 1019.32 1019.36 1019.52 1019.78 1020.13 1020.53 1020.93 1021.29 1021.57 1021.76 1021.88 1021.95 1022.02 1022.10 1022.23 1022.40 1022.59 1022.79 1022.97 1023.12 1023.22 1023.29 1023.33 1023.37 1023.42 1023.48 1023.57 1023.67
1018.40 1018.73 1018.97 1019.13 1019.24 1019.32 1019.39 1019.47 1019.55 1019.63 1019.67 1019.66 1019.60 1019.50 1019.39 1019.30 1019.27 1019.34 1019.52 1019.79 1020.12 1020.47 1020.81 1021.10 1021.34 1021.51 1021.65 1021.77 1021.90 1022.05 1022.22 1022.40 1022.58 1022.75 1022.88 1022.99 1023.07 1023.14 1023.21 1023.29 1023.39 1023.50 1023.61
1018.42 1018.76 1019.02 1019.22 1019.35 1019.45 1019.54 1019.62 1019.71 1019.77 1019.81 1019.78 1019.70 1019.57 1019.40 1019.25 1019.14 1019.12 1019.19 1019.36 1019.62 1019.92 1020.24 1020.55 1020.83 1021.06 1021.26 1021.43 1021.60 1021.76 1021.92 1022.09 1022.25 1022.40 1022.52 1022.64 1022.74 1022.84 1022.96 1023.09 1023.23 1023.38 1023.52
1018.40 1018.74 1019.03 1019.25 1019.42 1019.55 1019.66 1019.76 1019.85 1019.91 1019.93 1019.89 1019.78 1019.61 1019.39 1019.16 1018.97 1018.85 1018.82 1018.90 1019.07 1019.32 1019.62 1019.93 1020.23 1020.51 1020.76 1020.97 1021.17 1021.34 1021.50 1021.65 1021.79 1021.92 1022.04 1022.17 1022.30 1022.45 1022.62 1022.81 1023.00 1023.19 1023.36
1018.34 1018.67 1018.96 1019.21 1019.40 1019.56 1019.70 1019.82 1019.91 1019.98 1019.99 1019.93 1019.80 1019.59 1019.33 1019.04 1018.77 1018.56 1018.44 1018.43 1018.52 1018.70 1018.96 1019.25 1019.56 1019.86 1020.14 1020.38 1020.59 1020.78 1020.94 1021.08 1021.21 1021.34 1021.47 1021.62 1021.79 1021.99 1022.21 1022.45 1022.70 1022.93 1023.14
1018.23 1018.53 1018.81 1019.06 1019.28 1019.46 1019.63 1019.76 1019.87 1019.94 1019.95 1019.88 1019.74 1019.51 1019.22 1018.89 1018.57 1018.29 1018.09 1017.99 1018.00 1018.11 1018.30 1018.55 1018.83 1019.12 1019.39 1019.65 1019.87 1020.06 1020.23 1020.38 1020.52 1020.67 1020.82 1021.01 1021.22 1021.46 1021.73 1022.02 1022.31 1022.58 1022.80
1018.08 1018.33 1018.58 1018.82 1019.05 1019.25 1019.44 1019.59 1019.71 1019.79 1019.80 1019.74 1019.59 1019.36 1019.07 1018.73 1018.39 1018.06 1017.80 1017.63 1017.55 1017.56 1017.66 1017.83 1018.05 1018.29 1018.54 1018.78 1019.01 1019.21 1019.40 1019.58 1019.75 1019.93 1020.13 1020.35 1020.61 1020.89 1021.19 1021.51 1021.82 1022.11 1022.35
1017.89 1018.08 1018.30 1018.52 1018.74 1018.95 1019.15 1019.32 1019.45 1019.53 1019.56 1019.51 1019.38 1019.18 1018.90 1018.58 1018.24 1017.90 1017.60 1017.35 1017.18 1017.09 1017.08 1017.13 1017.25 1017.41 1017.60 1017.81 1018.03 1018.26 1018.48 1018.71 1018.93 1019.17 1019.41 1019.68 1019.96 1020.27 1020.59 1020.91 1021.23 1021.51 1021.76
1017.69 1017.82 1017.99 1018.18 1018.39 1018.60 1018.80 1018.97 1019.11 1019.20 1019.24 1019.22 1019.12 1018.96 1018.73 1018.45 1018.13 1017.80 1017.48 1017.17 1016.91 1016.71 1016.56 1016.48 1016.47 1016.52 1016.63 1016.80 1017.01 1017.25 1017.51 1017.79 1018.08 1018.38 1018.68 1018.98 1019.28 1019.59 1019.91 1020.21 1020.51 1020.80 1021.05
1017.48 1017.55 1017.68 1017.85 1018.04 1018.23 1018.43 1018.59 1018.73 1018.83 1018.88 1018.88 1018.82 1018.71 1018.55 1018.33 1018.06 1017.75 1017.42 1017.07 1016.73 1016.41 1016.12 1015.90 1015.74 1015.67 1015.69 1015.79 1015.98 1016.24 1016.54 1016.88 1017.23 1017.59 1017.93 1018.25 1018.56 1018.85 1019.14 1019.42 1019.69 1019.97 1020.24
1017.27 1017.31 1017.40 1017.54 1017.71 1017.89 1018.07 1018.22 1018.35 1018.44 1018.49 1018.51 1018.49 1018.44 1018.34 1018.19 1017.98 1017.72 1017.39 1017.02 1016.61 1016.19 1015.78 1015.41 1015.11 1014.91 1014.83 1014.87 1015.03 1015.29 1015.62 1016.01 1016.41 1016.80 1017.16 1017.49 1017.78 1018.04 1018.28 1018.52 1018.78 1019.05 1019.35
1017.08 1017.10 1017.17 1017.29 1017.44 1017.60 1017.76 1017.89 1017.99 1018.06 1018.11 1018.13 1018.14 1018.13 1018.09 1018.01 1017.87 1017.66 1017.36 1016.98 1016.53 1016.03 1015.51 1015.02 1014.60 1014.28 1014.11 1014.08 1014.20 1014.45 1014.80 1015.20 1015.63 1016.03 1016.39 1016.70 1016.96 1017.17 1017.36 1017.57 1017.80 1018.09 1018.43
1016.93 1016.94 1017.01 1017.12 1017.25 1017.39 1017.51 1017.61 1017.68 1017.72 1017.74 1017.76 1017.78 1017.80 1017.81 1017.79 1017.72 1017.56 1017.30 1016.94 1016.47 1015.92 1015.33 1014.75 1014.23 1013.82 1013.56 1013.47 1013.54 1013.77 1014.10 1014.50 1014.92 1015.31 1015.65 1015.91 1016.12 1016.28 1016.43 1016.60 1016.83 1017.13 1017.54
1016.84 1016.86 1016.93 1017.03 1017.15 1017.27 1017.37 1017.43 1017.45 1017.45 1017.44 1017.43 1017.44 1017.47 1017.51 1017.54 1017.51 1017.41 1017.20 1016.87 1016.41 1015.85 1015.23 1014.60 1014.01 1013.53 1013.20 1013.05 1013.08 1013.26 1013.56 1013.93 1014.32 1014.67 1014.96 1015.17 1015.32 1015.43 1015.54 1015.69 1015.93 1016.27 1016.74
1016.83 1016.87 1016.95 1017.06 1017.17 1017.27 1017.34 1017.36 1017.34 1017.29 1017.24 1017.19 1017.18 1017.20 1017.24 1017.29 1017.30 1017.24 1017.08 1016.78 1016.36 1015.81 1015.19 1014.54 1013.92 1013.40 1013.03 1012.83 1012.80 1012.93 1013.19 1013.51 1013.84 1014.15 1014.38 1014.54 1014.64 1014.71 1014.80 1014.95 1015.20 1015.59 1016.13
1016.91 1016.97 1017.07 1017.18 1017.30 1017.39 1017.44 1017.43 1017.38 1017.29 1017.18 1017.09 1017.04 1017.03 1017.05 1017.10 1017.12 1017.09 1016.96 1016.70 1016.31 1015.80 1015.19 1014.55 1013.93 1013.39 1012.99 1012.75 1012.68 1012.76 1012.96 1013.23 1013.52 1013.77 1013.97 1014.09 1014.17 1014.22 1014.30 1014.46 1014.75 1015.18 1015.77
1017.05 1017.14 1017.26 1017.40 1017.53 1017.62 1017.67 1017.65 1017.57 1017.44 1017.29 1017.16 1017.06 1017.00 1016.99 1017.01 1017.03 1016.99 1016.88 1016.64 1016.28 1015.80 1015.22 1014.60 1013.99 1013.45 1013.03 1012.76 1012.66 1012.70 1012.86 1013.10 1013.35 1013.58 1013.76 1013.88 1013.96 1014.03 1014.14 1014.33 1014.65 1015.13 1015.76
1017.22 1017.33 1017.48 1017.64 1017.79 1017.91 1017.97 1017.95 1017.87 1017.73 1017.56 1017.39 1017.24 1017.14 1017.08 1017.05 1017.03 1016.97 1016.84 1016.61 1016.26 1015.80 1015.24 1014.64 1014.04 1013.51 1013.08 1012.80 1012.68 1012.70 1012.84 1013.06 1013.32 1013.56 1013.77 1013.93 1014.06 1014.19 1014.36 1014.60 1014.96 1015.47 1016.11
1017.32 1017.47 1017.65 1017.85 1018.04 1018.19 1018.28 1018.29 1018.22 1018.09 1017.91 1017.72 1017.54 1017.39 1017.28 1017.19 1017.12 1017.01 1016.85 1016.59 1016.24 1015.77 1015.22 1014.63 1014.04 1013.51 1013.09 1012.81 1012.68 1012.70 1012.86 1013.10 1013.39 1013.70 1013.98 1014.23 1014.46 1014.68 1014.94 1015.25 1015.66 1016.19 1016.83
1017.30 1017.49 1017.70 1017.94 1018.17 1018.37 1018.50 1018.56 1018.53 1018.43 1018.27 1018.07 1017.87 1017.69 1017.53 1017.39 1017.25 1017.09 1016.87 1016.57 1016.18 1015.70 1015.14 1014.55 1013.96 1013.44 1013.02 1012.75 1012.64 1012.69 1012.88 1013.18 1013.55 1013.95 1014.35 1014.74 1015.10 1015.45 1015.81 1016.21 1016.67 1017.21 1017.83
1017.10 1017.32 1017.57 1017.85 1018.13 1018.38 1018.57 1018.68 1018.71 1018.65 1018.52 1018.35 1018.15 1017.95 1017.76 1017.57 1017.37 1017.15 1016.87 1016.52 1016.09 1015.57 1015.00 1014.40 1013.81 1013.29 1012.89 1012.63 1012.55 1012.64 1012.90 1013.28 1013.76 1014.28 1014.83 1015.37 1015.88 1016.38 1016.86 1017.35 1017.87 1018.42 1019.01
1016.71 1016.96 1017.24 1017.56 1017.88 1018.17 1018.42 1018.59 1018.67 1018.67 1018.59 1018.45 1018.28 1018.09 1017.88 1017.66 1017.42 1017.15 1016.82 1016.43 1015.95 1015.41 1014.82 1014.21 1013.63 1013.12 1012.74 1012.51 1012.47 1012.61 1012.94 1013.41 1014.00 1014.66 1015.35 1016.04 1016.71 1017.34 1017.95 1018.52 1019.08 1019.64 1020.19
1016.16 1016.43 1016.74 1017.08 1017.43 1017.76 1018.04 1018.26 1018.40 1018.46 1018.44 1018.36 1018.22 1018.05 1017.85 1017.63 1017.37 1017.07 1016.72 1016.29 1015.80 1015.25 1014.66 1014.05 1013.49 1013.01 1012.65 1012.46 1012.46 1012.66 1013.04 1013.59 1014.27 1015.04 1015.85 1016.67 1017.47 1018.22 1018.92 1019.56 1020.15 1020.70 1021.22
1015.53 1015.81 1016.13 1016.48 1016.84 1017.19 1017.50 1017.75 1017.94 1018.05 1018.09 1018.06 1017.98 1017.85 1017.68 1017.47 1017.23 1016.93 1016.57 1016.15 1015.67 1015.13 1014.56 1013.99 1013.47 1013.03 1012.72 1012.57 1012.61 1012.84 1013.27 1013.87 1014.60 1015.44 1016.32 1017.21 1018.08 1018.90 1019.65 1020.33 1020.93 1021.47 1021.94
1014.90 1015.18 1015.50 1015.84 1016.19 1016.54 1016.86 1017.13 1017.35 1017.50 1017.59 1017.62 1017.60 1017.52 1017.40 1017.23 1017.01 1016.74 1016.42 1016.03 1015.59 1015.10 1014.59 1014.09 1013.63 1013.25 1013.00 1012.89 1012.97 1013.23 1013.67 1014.27 1015.01 1015.84 1016.72 1017.62 1018.50 1019.32 1020.07 1020.75 1021.33 1021.83 1022.27
1014.35 1014.61 1014.91 1015.24 1015.57 1015.90 1016.21 1016.49 1016.73 1016.92 1017.05 1017.13 1017.16 1017.13 1017.06 1016.94 1016.78 1016.56 1016.28 1015.95 1015.58 1015.17 1014.75 1014.34 1013.98 1013.68 1013.50 1013.45 1013.55 1013.82 1014.24 1014.80 1015.48 1016.25 1017.07 1017.90 1018.71 1019.48 1020.18 1020.80 1021.34 1021.80 1022.19
Thickness
5744 5744 5743 5742 5744 5742 5741 5740 5740 5739 5739 5739 5740 5740 5740 5740 5740 5740 5736 5731 5728 5727 5726 5724 5723 5722 5720 5719 5717 5716 5714 5713 5712 5710 5709 5708 5707 5706 5705 5704 5703 5702 5701
5744 5743 5742 5741 5742 5741 5741 5740 5740 5739 5740 5740 5740 5739 5739 5740 5739 5738 5738 5733 5730 5728 5726 5725 5724 5722 5721 5719 5718 5716 5715 5713 5712 5710 5709 5708 5706 5705 5704 5703 5702 5701 5700
5742 5742 5743 5741 5741 5740 5739 5739 5739 5740 5740 5740 5740 5740 5740 5739 5740 5738 5738 5737 5734 5730 5728 5726 5725 5723 5722 5720 5718 5717 5715 5714 5712 5710 5709 5707 5706 5705 5704 5702 5701 5700 5699
5742 5741 5742 5742 5740 5740 5740 5740 5741 5740 5740 5740 5740 5740 5740 5739 5739 5739 5739 5738 5737 5735 5731 5728 5726 5724 5723 5721 5720 5718 5716 5714 5713 5711 5709 5707 5706 5704 5703 5702 5700 5699 5698
5742 5742 5742 5741 5740 5740 5741 5742 5742 5740 5739 5739 5740 5740 5741 5741 5740 5740 5740 5740 5738 5736 5735 5731 5728 5726 5724 5722 5721 5719 5717 5715 5713 5711 5709 5708 5706 5704 5703 5701 5699 5698 5696
5743 5743 5742 5741 5741 5741 5740 5740 5739 5738 5738 5739 5742 5742 5742 5742 5742 5742 5741 5741 5739 5738 5736 5734 5731 5728 5726 5724 5722 5720 5718 5716 5714 5712 5710 5708 5706 5704 5703 5701 5699 5697 5696
5744 5743 5745 5742 5742 5742 5740 5740 5739 5738 5738 5740 5739 5738 5741 5743 5743 5742 5742 5742 5742 5739 5737 5735 5733 5731 5729 5725 5723 5721 5719 5717 5715 5712 5710 5708 5706 5704 5702 5700 5698 5697 5695
5745 5745 5744 5744 5743 5741 5740 5739 5738 5738 5739 5740 5737 5734 5733 5738 5741 5744 5742 5741 5740 5739 5738 5736 5733 5731 5730 5729 5726 5722 5719 5717 5715 5713 5710 5708 5706 5704 5702 5699 5697 5695 5694
5746 5745 5745 5744 5743 5743 5741 5739 5739 5737 5736 5739 5739 5735 5730 5729 5735 5741 5740 5740 5738 5737 5737 5735 5733 5732 5730 5729 5727 5723 5720 5718 5715 5713 5710 5708 5706 5703 5701 5699 5696 5694 5692
5747 5746 5745 5744 5743 5743 5742 5741 5742 5740 5737 5735 5737 5737 5736 5736 5730 5730 5735 5738 5737 5735 5735 5735 5734 5732 5730 5728 5726 5723 5720 5717 5715 5712 5710 5707 5704 5702 5700 5697 5695 5693 5690
5747 5747 5745 5744 5743 5743 5742 5741 5740 5739 5739 5737 5736 5736 5735 5734 5733 5729 5727 5730 5733 5734 5734 5732 5731 5730 5729 5727 5725 5723 5720 5716 5713 5711 5708 5705 5703 5700 5698 5696 5694 5691 5688
5749 5748 5746 5744 5743 5743 5742 5741 5740 5739 5738 5737 5736 5735 5733 5732 5731 5730 5727 5726 5727 5730 5731 5730 5729 5728 5726 5725 5723 5721 5717 5714 5711 5708 5705 5703 5700 5698 5696 5693 5691 5688 5686
5750 5747 5747 5744 5743 5742 5742 5741 5739 5739 5737 5736 5735 5735 5735 5734 5734 5731 5727 5726 5725 5727 5727 5726 5726 5725 5724 5722 5720 5717 5713 5710 5708 5705 5702 5699 5697 5694 5692 5689 5687 5685 5682
5751 5749 5746 5744 5743 5742 5741 5740 5740 5739 5737 5736 5736 5735 5734 5734 5734 5732 5728 5724 5721 5722 5722 5721 5722 5721 5719 5716 5714 5711 5709 5706 5703 5701 5698 5695 5692 5690 5687 5684 5682 5680 5677
5750 5747 5746 5744 5742 5741 5740 5739 5738 5737 5736 5735 5735 5734 5733 5733 5733 5732 5729 5726 5720 5717 5717 5717 5716 5715 5713 5710 5708 5706 5704 5702 5699 5696 5693 5690 5687 5684 5681 5679 5677 5674 5671
5747 5746 5744 5743 5741 5740 5739 5737 5736 5735 5733 5732 5731 5730 5729 5730 5730 5729 5728 5726 5723 5719 5714 5714 5711 5710 5707 5705 5702 5700 5699 5696 5693 5691 5688 5685 5682 5680 5676 5674 5670 5668 5665
5744 5743 5742 5741 5739 5738 5737 5735 5733 5732 5730 5728 5728 5727 5726 5726 5726 5726 5724 5723 5720 5717 5711 5709 5707 5704 5701 5698 5695 5694 5693 5691 5688 5685 5683 5680 5677 5674 5671 5668 5664 5661 5658
5742 5740 5739 5737 5736 5736 5734 5732 5730 5729 5727 5725 5724 5723 5722 5722 5721 5720 5719 5718 5716 5713 5709 5704 5701 5698 5695 5692 5690 5688 5687 5685 5682 5679 5677 5674 5671 5668 5665 5662 5658 5655 5651
5739 5738 5736 5734 5733 5731 5730 5728 5726 5725 5723 5721 5720 5718 5717 5717 5715 5715 5714 5713 5712 5710 5707 5702 5698 5694 5691 5688 5685 5683 5681 5678 5676 5673 5670 5668 5665 5662 5658 5655 5652 5648 5644
5736 5734 5732 5730 5729 5727 5725 5723 5722 5720 5718 5717 5715 5714 5712 5711 5710 5710 5709 5707 5705 5703 5700 5697 5693 5689 5686 5683 5680 5678 5675 5673 5671 5668 5665 5661 5657 5654 5651 5648 5644 5641 5637
5733 5730 5727 5725 5724 5722 5720 5717 5716 5715 5713 5711 5710 5708 5707 5705 5704 5703 5703 5701 5699 5697 5695 5692 5688 5684 5680 5677 5674 5672 5670 5668 5665 5662 5659 5656 5652 5648 5643 5639 5635 5632 5629
5728 5725 5722 5720 5718 5716 5712 5710 5709 5709 5708 5706 5704 5703 5702 5700 5698 5695 5694 5692 5691 5691 5689 5686 5684 5680 5675 5673 5670 5667 5664 5662 5658 5656 5653 5649 5645 5641 5637 5633 5628 5625 5621
5723 5720 5718 5715 5712 5708 5704 5703 5701 5702 5701 5700 5698 5697 5697 5695 5692 5691 5688 5685 5683 5682 5680 5680 5678 5675 5671 5668 5664 5661 5657 5655 5652 5649 5645 5641 5637 5633 5629 5625 5621 5616 5613
5720 5717 5713 5711 5707 5703 5698 5696 5695 5696 5695 5693 5692 5690 5688 5687 5685 5683 5682 5680 5678 5676 5674 5673 5671 5669 5666 5662 5658 5655 5651 5647 5645 5641 5637 5633 5630 5625 5621 5617 5611 5608 5603
5715 5712 5709 5706 5702 5697 5692 5690 5688 5690 5689 5687 5685 5683 5681 5678 5674 5673 5673 5672 5671 5669 5666 5663 5661 5659 5656 5653 5650 5648 5645 5643 5640 5636 5631 5626 5622 5617 5613 5608 5603 5598 5594
5710 5707 5703 5700 5697 5693 5687 5684 5682 5685 5683 5682 5679 5676 5672 5670 5667 5665 5666 5665 5663 5661 5658 5656 5653 5651 5648 5645 5642 5640 5639 5636 5634 5629 5624 5619 5615 5610 5604 5599 5595 5590 5585